TimeMDT,TemperatureF,Dew PointF,Humidity,Sea Level PressureIn,VisibilityMPH,Wind Direction,Wind SpeedMPH,Gust SpeedMPH,PrecipitationIn,Events,Conditions,WindDirDegrees,DateUTC
12:53 AM,52.0,24.1,34,29.96,10.0,West,10.4,-,N/A,,Clear,270,2012-10-04 06:53:00
1:53 AM,54.0,23.0,30,29.96,10.0,West,6.9,-,N/A,,Clear,280,2012-10-04 07:53:00
2:53 AM,54.0,23.0,30,29.97,10.0,West,9.2,-,N/A,,Clear,280,2012-10-04 08:53:00
3:53 AM,51.1,25.0,36,29.99,10.0,WSW,12.7,-,N/A,,Clear,250,2012-10-04 09:53:00
4:53 AM,50.0,25.0,38,30.02,10.0,WSW,10.4,-,N/A,,Clear,250,2012-10-04 10:53:00
5:53 AM,48.9,25.0,39,30.06,10.0,East,11.5,-,N/A,,Clear,80,2012-10-04 11:53:00
6:53 AM,42.1,28.0,58,30.14,-9999.0,East,9.2,-,N/A,,Clear,100,2012-10-04 12:53:00
7:53 AM,44.1,30.9,60,30.18,-9999.0,ESE,9.2,-,N/A,,Clear,120,2012-10-04 13:53:00
8:53 AM,48.0,32.0,54,30.17,-9999.0,East,11.5,-,N/A,,Unknown,100,2012-10-04 14:53:00
9:53 AM,52.0,33.1,49,30.18,-9999.0,ESE,10.4,-,N/A,,Clear,110,2012-10-04 15:53:00
10:53 AM,55.9,32.0,40,30.15,10.0,ESE,6.9,-,N/A,,Clear,110,2012-10-04 16:53:00
11:53 AM,63.0,33.1,33,30.14,10.0,South,8.1,-,N/A,,Clear,170,2012-10-04 17:53:00
12:53 PM,64.9,33.1,31,30.12,10.0,South,9.2,-,N/A,,Clear,170,2012-10-04 18:53:00
1:53 PM,69.1,33.1,26,30.06,10.0,South,12.7,-,N/A,,Clear,190,2012-10-04 19:53:00
2:53 PM,73.0,30.0,20,30.01,10.0,SSW,12.7,26.5,N/A,,Clear,210,2012-10-04 20:53:00
3:53 PM,75.0,30.0,19,30.00,10.0,SW,19.6,24.2,N/A,,Clear,230,2012-10-04 21:53:00
4:53 PM,75.0,26.1,16,29.98,10.0,WSW,21.9,29.9,N/A,,Clear,240,2012-10-04 22:53:00
5:53 PM,73.0,26.1,17,29.99,10.0,SW,18.4,26.5,N/A,,Clear,230,2012-10-04 23:53:00
6:53 PM,66.9,25.0,21,30.04,10.0,SW,12.7,-,N/A,,Clear,230,2012-10-05 00:53:00
7:53 PM,57.9,33.1,39,30.07,10.0,South,12.7,-,N/A,,Clear,170,2012-10-05 01:53:00
8:53 PM,54.0,32.0,43,30.08,10.0,South,11.5,-,N/A,,Clear,180,2012-10-05 02:53:00
9:53 PM,52.0,32.0,47,30.08,10.0,ENE,6.9,-,N/A,,Clear,60,2012-10-05 03:53:00
10:53 PM,48.0,32.0,54,30.07,10.0,East,6.9,-,N/A,,Clear,100,2012-10-05 04:53:00
11:53 PM,46.9,32.0,56,30.04,10.0,East,4.6,-,N/A,,Clear,80,2012-10-05 05:53:00